• In Hungary
  • List of Countries
  • For 7 days
  • Water Temperature
  • Satellite Maps
  • Weather Map
  • News
  • Weather Widgets
  • user-avatar
    Login

    Hourly Weather Vyazigino

    Today, 18 June, Monday

    Time Temperature Precipitation Wind Pressure Humidity
    00:00 +15°C° 0 mm 1 mps 751 mmHg 80%
    01:00 +15°C° 0 mm 1 mps 751 mmHg 82%
    02:00 +14°C° 0 mm 1 mps 750 mmHg 84%
    03:00 +15°C° 0 mm 1 mps 750 mmHg 82%
    04:00 +16°C° 0 mm 1 mps 750 mmHg 80%
    05:00 +18°C° 0 mm 1 mps 750 mmHg 78%
    06:00 +20°C° 0 mm 1 mps 750 mmHg 72%
    07:00 +22°C° 0 mm 1 mps 750 mmHg 66%
    08:00 +24°C° 0 mm 2 mps 750 mmHg 60%
    09:00 +25°C° 0 mm 2 mps 749 mmHg 55%
    10:00 +26°C° 0 mm 2 mps 749 mmHg 51%
    11:00 +27°C° 0 mm 2 mps 749 mmHg 46%
    12:00 +27°C° 0 mm 2 mps 749 mmHg 47%
    13:00 +27°C° 0 mm 2 mps 749 mmHg 48%
    14:00 +27°C° 0 mm 2 mps 748 mmHg 48%
    15:00 +27°C° 0 mm 2 mps 748 mmHg 51%
    16:00 +27°C° 0 mm 2 mps 748 mmHg 55%
    17:00 +27°C° 0 mm 2 mps 747 mmHg 58%
    18:00 +25°C° 0 mm 2 mps 747 mmHg 63%
    19:00 +23°C° 0 mm 2 mps 747 mmHg 69%
    20:00 +21°C° 0 mm 2 mps 747 mmHg 75%
    21:00 +20°C° 0 mm 2 mps 747 mmHg 78%
    22:00 +19°C° 0 mm 2 mps 747 mmHg 80%
    23:00 +18°C° 0 mm 2 mps 747 mmHg 83%

    Tomorrow, 19 June, Tuesday

    Time Temperature Precipitation Wind Pressure Humidity
    00:00 +17°C° 0 mm 2 mps 747 mmHg 87%
    01:00 +16°C° 0 mm 2 mps 746 mmHg 90%
    02:00 +16°C° 0 mm 2 mps 746 mmHg 94%
    03:00 +17°C° 0 mm 2 mps 746 mmHg 92%
    04:00 +17°C° 0 mm 2 mps 746 mmHg 91%
    05:00 +18°C° 0 mm 2 mps 746 mmHg 90%
    06:00 +19°C° 0.1 mm 2 mps 746 mmHg 84%
    07:00 +21°C° 0.1 mm 2 mps 746 mmHg 79%
    08:00 +24°C° 0.1 mm 2 mps 746 mmHg 73%
    09:00 +24°C° 0.2 mm 2 mps 745 mmHg 68%
    10:00 +25°C° 0.2 mm 3 mps 745 mmHg 62%
    11:00 +26°C° 0.2 mm 3 mps 745 mmHg 57%
    12:00 +26°C° 0.5 mm 4 mps 745 mmHg 59%
    13:00 +26°C° 0.5 mm 4 mps 744 mmHg 62%
    14:00 +26°C° 0.5 mm 4 mps 744 mmHg 64%
    15:00 +25°C° 0.2 mm 4 mps 744 mmHg 61%
    16:00 +25°C° 0.2 mm 4 mps 743 mmHg 58%
    17:00 +25°C° 0.2 mm 4 mps 743 mmHg 56%
    18:00 +22°C° 0 mm 3 mps 743 mmHg 60%
    19:00 +20°C° 0 mm 3 mps 743 mmHg 65%
    20:00 +19°C° 0 mm 3 mps 743 mmHg 70%
    21:00 +18°C° 0 mm 3 mps 743 mmHg 72%
    22:00 +17°C° 0 mm 3 mps 743 mmHg 74%
    23:00 +17°C° 0 mm 3 mps 743 mmHg 75%

    Day after tomorrow, 20 June, Wednesday

    Time Temperature Precipitation Wind Pressure Humidity
    00:00 +16°C° 0 mm 3 mps 743 mmHg 78%
    01:00 +16°C° 0 mm 3 mps 743 mmHg 82%
    02:00 +15°C° 0 mm 4 mps 743 mmHg 85%
    03:00 +14°C° 0 mm 4 mps 743 mmHg 85%
    04:00 +14°C° 0 mm 4 mps 744 mmHg 84%
    05:00 +14°C° 0 mm 4 mps 744 mmHg 84%
    06:00 +15°C° 0 mm 5 mps 744 mmHg 75%
    07:00 +16°C° 0 mm 5 mps 744 mmHg 66%
    08:00 +17°C° 0 mm 5 mps 745 mmHg 56%
    09:00 +19°C° 0 mm 5 mps 745 mmHg 52%
    10:00 +20°C° 0 mm 5 mps 745 mmHg 47%
    11:00 +21°C° 0 mm 5 mps 745 mmHg 42%
    12:00 +22°C° 0 mm 5 mps 744 mmHg 41%
    13:00 +22°C° 0 mm 5 mps 744 mmHg 40%
    14:00 +22°C° 0 mm 5 mps 744 mmHg 39%
    15:00 +22°C° 0 mm 4 mps 744 mmHg 43%
    16:00 +21°C° 0 mm 4 mps 744 mmHg 47%
    17:00 +21°C° 0 mm 3 mps 744 mmHg 51%
    18:00 +20°C° 0 mm 3 mps 744 mmHg 56%
    19:00 +18°C° 0 mm 3 mps 745 mmHg 60%
    20:00 +17°C° 0 mm 2 mps 745 mmHg 64%
    21:00 +16°C° 0 mm 2 mps 745 mmHg 67%
    22:00 +15°C° 0 mm 2 mps 745 mmHg 69%
    23:00 +13°C° 0 mm 3 mps 745 mmHg 72%

    21 June, Thursday

    Time Temperature Precipitation Wind Pressure Humidity
    00:00 +13°C° 0 mm 2 mps 745 mmHg 76%
    01:00 +12°C° 0 mm 2 mps 746 mmHg 80%
    02:00 +10°C° 0 mm 2 mps 746 mmHg 84%
    03:00 +11°C° 0 mm 3 mps 746 mmHg 80%
    04:00 +11°C° 0 mm 3 mps 746 mmHg 76%
    05:00 +12°C° 0 mm 3 mps 746 mmHg 72%
    06:00 +14°C° 0 mm 4 mps 746 mmHg 66%
    07:00 +15°C° 0 mm 4 mps 746 mmHg 59%
    08:00 +17°C° 0 mm 4 mps 746 mmHg 53%
    09:00 +18°C° 0 mm 4 mps 746 mmHg 51%
    10:00 +19°C° 0 mm 4 mps 746 mmHg 48%
    11:00 +20°C° 0 mm 4 mps 746 mmHg 46%
    12:00 +21°C° 0 mm 4 mps 745 mmHg 46%
    13:00 +22°C° 0 mm 4 mps 745 mmHg 46%
    14:00 +23°C° 0 mm 5 mps 745 mmHg 46%
    15:00 +23°C° 0 mm 4 mps 745 mmHg 50%
    16:00 +22°C° 0 mm 3 mps 745 mmHg 54%
    17:00 +23°C° 0 mm 2 mps 744 mmHg 58%
    18:00 +21°C° 0 mm 2 mps 744 mmHg 64%
    19:00 +21°C° 0 mm 1 mps 744 mmHg 70%
    20:00 +19°C° 0 mm 1 mps 744 mmHg 76%
    21:00 +18°C° 0 mm 2 mps 744 mmHg 78%
    22:00 +17°C° 0 mm 2 mps 744 mmHg 80%
    23:00 +17°C° 0 mm 3 mps 744 mmHg 82%

    22 June, Friday

    Time Temperature Precipitation Wind Pressure Humidity
    00:00 +16°C° 0 mm 3 mps 743 mmHg 84%
    01:00 +16°C° 0 mm 3 mps 743 mmHg 85%
    02:00 +16°C° 0 mm 3 mps 743 mmHg 87%
    03:00 +17°C° 0 mm 4 mps 743 mmHg 85%
    04:00 +17°C° 0 mm 4 mps 742 mmHg 84%
    05:00 +18°C° 0 mm 4 mps 742 mmHg 82%
    06:00 +19°C° 0 mm 5 mps 741 mmHg 75%
    07:00 +21°C° 0 mm 6 mps 741 mmHg 69%
    08:00 +23°C° 0 mm 6 mps 741 mmHg 62%
    09:00 +24°C° 0 mm 7 mps 740 mmHg 59%
    10:00 +26°C° 0 mm 7 mps 740 mmHg 57%
    11:00 +27°C° 0 mm 7 mps 740 mmHg 54%
    12:00 +26°C° 0.5 mm 7 mps 740 mmHg 63%
    13:00 +24°C° 0.5 mm 6 mps 740 mmHg 72%
    14:00 +23°C° 0.5 mm 6 mps 739 mmHg 80%
    15:00 +23°C° 0.8 mm 5 mps 739 mmHg 84%
    16:00 +22°C° 0.8 mm 5 mps 739 mmHg 87%
    17:00 +22°C° 0.8 mm 5 mps 740 mmHg 90%
    18:00 +21°C° 0.9 mm 4 mps 740 mmHg 92%
    19:00 +20°C° 0.9 mm 3 mps 740 mmHg 94%
    20:00 +20°C° 0.9 mm 2 mps 740 mmHg 96%
    21:00 +19°C° 1.4 mm 2 mps 740 mmHg 96%
    22:00 +19°C° 1.4 mm 2 mps 740 mmHg 97%
    23:00 +19°C° 1.4 mm 1 mps 740 mmHg 98%

    23 June, Saturday

    Time Temperature Precipitation Wind Pressure Humidity
    00:00 +19°C° 0.4 mm 1 mps 740 mmHg 97%
    01:00 +18°C° 0.4 mm 1 mps 741 mmHg 97%
    02:00 +18°C° 0.4 mm 1 mps 741 mmHg 96%
    03:00 +16°C° 0 mm 1 mps 741 mmHg 96%
    04:00 +16°C° 0 mm 1 mps 741 mmHg 95%
    05:00 +16°C° 0 mm 1 mps 741 mmHg 94%
    06:00 +15°C° 0.2 mm 2 mps 741 mmHg 94%
    07:00 +15°C° 0.2 mm 2 mps 741 mmHg 94%
    08:00 +15°C° 0.2 mm 2 mps 741 mmHg 94%
    09:00 +14°C° 0.4 mm 2 mps 742 mmHg 95%
    10:00 +14°C° 0.4 mm 2 mps 742 mmHg 95%
    11:00 +14°C° 0.4 mm 2 mps 742 mmHg 95%
    12:00 +14°C° 0.2 mm 2 mps 742 mmHg 96%
    13:00 +14°C° 0.2 mm 2 mps 742 mmHg 96%
    14:00 +13°C° 0.2 mm 1 mps 743 mmHg 96%
    15:00 +13°C° 0.1 mm 1 mps 743 mmHg 96%
    16:00 +13°C° 0.1 mm 1 mps 743 mmHg 96%
    17:00 +13°C° 0.1 mm 1 mps 743 mmHg 95%
    18:00 +13°C° 0.1 mm 1 mps 743 mmHg 96%
    19:00 +13°C° 0.1 mm 1 mps 743 mmHg 96%
    20:00 +13°C° 0.1 mm 1 mps 743 mmHg 96%
    21:00 +13°C° 0 mm 1 mps 743 mmHg 96%
    22:00 +13°C° 0 mm 1 mps 744 mmHg 96%
    23:00 +13°C° 0 mm 1 mps 744 mmHg 96%
    Show more